Preview of NWS' New Version of Forecast
This preview is not operational and should not be used for support decisions.

Regional Weather Roundup (RWR)

Issued by National Weather Service (NWS)

                            
000
ASUS45 KBOU 210010
RWRCO 

WEATHER ROUNDUP FOR COLORADO
NATIONAL WEATHER SERVICE DENVER/BOULDER CO
600 PM MDT SAT JUL 20 2019

NOTE: "FAIR" INDICATES FEW OR NO CLOUDS BELOW 12000 FEET WITH NO
SIGNIFICANT WEATHER AND/OR OBSTRUCTIONS TO VISIBILITY.

COZ001>005-013-030-031-210100-
...NORTHWEST COLORADO...
  
CITY           SKY/WX    TMP DP  RH WIND       PRES   REMARKS
CRAIG          FAIR      87  43  21 CALM      30.06R                  
HAYDEN         FAIR      77  48  35 NE7       30.10F                  
MEEKER         FAIR      89  34  14 SW14G24   30.06S                  
RANGELY        FAIR      88  40  18 NW5G17    29.95S                  
RABBIT EARS PA NOT AVBL                                               
STEAMBOAT SPGS FAIR      76  48  37 NW12G21   30.12S                  
WALDEN         NOT AVBL                                               
$$

COZ006>008-011-210100-
...WEST CENTRAL VALLEYS...
  
CITY           SKY/WX    TMP DP  RH WIND       PRES   REMARKS
GRAND JUNCTION FAIR      97  28   8 N7        29.92S                  
MONTROSE       FAIR      86  47  25 E18G32    30.06F                  
EAGLE          FAIR      77  47  34 E16       30.17R                  
RIFLE          LGT RAIN  82  50  32 SE18G36   30.00R                  
DELTA          FAIR      96  39  13 SE12      29.99F                  
NUCLA          FAIR      91  21   8 S17       30.08F                  
$$

COZ017>023-064>068-210100-
...SOUTHWEST COLORADO...
  
CITY           SKY/WX    TMP DP  RH WIND       PRES   REMARKS
DURANGO        FAIR      87  36  16 W13       30.14F                  
CORTEZ         FAIR      91  32  12 SW9       30.07F                  
PAGOSA SPRINGS FAIR      78  45  30 NE8G16    30.26F                  
TELLURIDE      FAIR      73  32  21 W7        30.38S                  
WOLF CREEK PAS FAIR      52  39  62 N7        30.66F                  
$$

COZ009-010-012-014-032>034-037-058>063-210100-
...CENTRAL COLORADO...
  
CITY           SKY/WX    TMP DP  RH WIND       PRES   REMARKS
ASPEN          PTSUNNY   72  43  35 SE10G22   30.28F                  
BUENA VISTA    FAIR      68  40  36 W15       30.31F                  
COPPER MTN     CLOUDY    54  37  54 SE6       30.66R THUNDER          
BERTHOUD PASS  CLOUDY    39  28  65 SE20      30.66R THUNDER          
COTTONWOOD PAS NOT AVBL                                               
GUNNISON       FAIR      68  51  54 N8        30.31F                  
GRANBY         NOT AVBL                                               
KREMMLING      FAIR      79  37  22 W17G28    30.18R                  
LEADVILLE      FAIR      58  43  57 VRB3      30.48F                  
SALIDA         FAIR      75  42  30 N10       30.34F                  
SUNLIGHT       CLOUDY    59  41  51 SW13G22   30.51R                  
WILKERSON PASS CLOUDY    55  43  62 E3        30.62R                  
$$

COZ069>075-210100-
...SAN LUIS VALLEY/SANGRE DE CRISTO MOUNTAINS...
  
CITY           SKY/WX    TMP DP  RH WIND       PRES   REMARKS
ALAMOSA        FAIR      72  44  36 N12G25    30.24F                  
DEL NORTE      FAIR      68  52  56 SW12      30.30F                  
LA VETA PASS   NOT AVBL                                               
SAGUACHE       PTSUNNY   72  43  35 W14G20    30.31F                  
$$

COZ035-036-038>040-210100-
...NORTHERN COLORADO FRONT RANGE...
  
CITY           SKY/WX    TMP DP  RH WIND       PRES   REMARKS
DENVER INTL AP PTSUNNY   76  59  55 SW9       30.15R                  
AURORA         PTSUNNY   73  61  65 SW10      30.19R                  
FRONT RANGE AP CLOUDY    77  61  57 SE13      30.16R                  
ERIE MUNI ARPT PTSUNNY   72  64  76 W7        30.18S THUNDER          
BOULDER MUN AP TSTM      70  64  83 S6        30.16R                  
CENTENNIAL     TSTM      64  55  72 S16G60    30.23R                  
BROOMFIELD     TSTM      68  64  88 SW28G35   30.19S                  
FORT COLLINS   FAIR      78  59  51 VRB5      30.13S                  
LONGMONT       CLOUDY    76  62  61 CALM      30.15R                  
$$

COZ041-046-047-076>085-087-088-210100-
...PIKES PEAK/PALMER DIVIDE AND SOUTHERN FOOTHILLS...
  
CITY           SKY/WX    TMP DP  RH WIND       PRES   REMARKS
COLO. SPRINGS  LGT RAIN  65  59  81 NW24G32   30.21R                  
A. F. ACADEMY  LGT RAIN  63  56  79 NW5       30.26R                  
SCHRIEVER AFB  NOT AVBL                                               
CHEYENNE MTN   NOT AVBL                                               
ELLICOTT       TSTM       1  32 100 N24       30.12  WCI -22          
FALCON         LGT RAIN  66  55  66 NW20G31   30.24S                  
FORT CARSON    LGT RAIN  67  53  61 NW21G29   30.13F                  
LIMON          FAIR      73  62  68 N21G36    30.13R                  
MONUMENT HILL  CLOUDY    63  54  72 NW7       30.30F                  
CANON CITY     NOT AVBL                                               
WALSENBURG     NOT AVBL                                               
TRINIDAD       FAIR      80  54  40 E13G32    30.06R                  
$$

COZ042>045-048>051-090-091-210100-
...NORTHEAST COLORADO...
  
CITY           SKY/WX    TMP DP  RH WIND       PRES   REMARKS
GREELEY ARPT   FAIR      80  61  52 SE7       30.09F                  
AKRON          CLOUDY    73  63  70 N14       30.09F                  
BURLINGTON     FAIR      88  65  46 N20G32    29.96R                  
WRAY           PTSUNNY   79  63  57 N22G29    30.00F                  
YUMA           MOCLDY    73  37  27 N16G23    30.04S                  
STERLING       CLOUDY    77  63  61 NE7       30.07S                  
HOLYOKE        PTSUNNY   79  64  61 NE13      30.04R                  
FORT MORGAN    NOT AVBL                                               
$$

COZ086-089-092>099-210100-
...SOUTHEAST COLORADO...
  
CITY           SKY/WX    TMP DP  RH WIND       PRES   REMARKS
PUEBLO         TSTM      66  59  77 NW12G39   30.11R                  
LA JUNTA       FAIR      93  63  36 N13       29.92R                  
LAMAR          FAIR      99  54  22 N14       29.79R                  
SPRINGFIELD      N/A     89  47  23 SW9       29.87R                  
$$